This demonstration page uses our WeatherBlox Daily Observations layout. Learn more.

Left ArrowRight Arrow

36.17497, -115.13722

Hourly Observations for March 30, 2021

Temp ( °F °C ) Dew Point ( °F °C ) Humidity (%) Winds ( mph kmh ) Pressure ( in mb ) Visibility ( mi km ) Precip ( " mm )
12:53 am 00:53 Clear 69 20.6 17 -8.3 14 14 NNE 12 19 29.76 1008 10 16 0.00 0.00
1:53 am 01:53 Clear 64 17.8 17 -8.3 16 16 NE 14 22 29.80 1009 10 16 0.00 0.00
2:53 am 02:53 Clear 63 17.2 17 -8.3 17 17 NW 21 33 29.83 1010 10 16 0.00 0.00
3:53 am 03:53 Clear 61 16.1 14 -10 16 16 NNW 15 24 29.88 1012 10 16 0.00 0.00
4:53 am 04:53 Clear 58 14.4 11 -11.7 15 15 NNW 15 24 29.92 1013 10 16 0.00 0.00
5:53 am 05:53 Clear 56 13.3 8 -13.3 14 14 N 10 17 29.98 1015 10 16 0.00 0.00
6:53 am 06:53 Sunny with Light Rain 55 12.8 4 -15.6 12 12 NW 30 48 29.98 1015 10 16 0.00 0.00
7:53 am 07:53 Sunny 56 13.3 2 -16.7 11 11 NNW 22 35 30.04 1017 10 16 0.00 0.00
8:53 am 08:53 Sunny 57 13.9 0 -17.8 10 10 NNW 21 33 30.08 1019 10 16 0.00 0.00
9:53 am 09:53 Sunny 60 15.6 -1 -18.3 8 8 NW 24 39 30.10 1019 10 16 0.00 0.00
10:53 am 10:53 Sunny 61 16.1 0 -17.8 8 8 NE 9 15 30.11 1020 10 16 0.00 0.00
11:53 am 11:53 Sunny 63 17.2 -1 -18.3 7 7 NNW 17 28 30.10 1019 10 16 0.00 0.00
12:53 pm 12:53 Sunny 65 18.3 -1 -18.3 7 7 NW 15 24 30.09 1019 10 16 0.00 0.00
1:53 pm 13:53 Sunny 67 19.4 -3 -19.4 6 6 WNW 18 30 30.08 1019 10 16 0.00 0.00
2:53 pm 14:53 Sunny 68 20 -2 -18.9 6 6 undefined N/A 30.06 1018 10 16 0.00 0.00
3:53 pm 15:53 Sunny 69 20.6 -3 -19.4 5 5 ENE 9 15 30.06 1018 10 16 0.00 0.00
4:53 pm 16:53 Sunny 70 21.1 -4 -20 5 5 ENE 8 13 30.05 1018 10 16 0.00 0.00
5:53 pm 17:53 Sunny 69 20.6 -4 -20 5 5 ENE 10 17 30.06 1018 10 16 0.00 0.00
6:53 pm 18:53 Sunny 67 19.4 -4 -20 5 5 NE 15 24 30.08 1019 10 16 0.00 0.00
7:53 pm 19:53 Clear 65 18.3 -3 -19.4 6 6 ENE 9 15 30.10 1019 10 16 0.00 0.00
8:53 pm 20:53 Clear 63 17.2 3 -16.1 9 9 NE 12 19 30.15 1021 10 16 0.00 0.00
9:53 pm 21:53 Clear 61 16.1 4 -15.6 10 10 NE 8 13 30.18 1022 10 16 0.00 0.00
10:53 pm 22:53 Clear 59 15 4 -15.6 11 11 ENE 9 15 30.21 1023 10 16 0.00 0.00
11:53 pm 23:53 Clear 58 14.4 4 -15.6 11 11 Calm 30.22 1023 10 16 0.00 0.00

Powered by AerisWeather